Saint Simons Island, GA

9:44 AM EDT on March 25, 2017 (GMT -0400)
McKinnon

Weather History for KSSI - June, 2013

Change the Weather History Date:

Thursday, June 13, 2013

  Actual Average Record
Temperature  
Mean Temperature 88 °F 80 °F  
Max Temperature 96 °F 87 °F 98 °F (2016)
Min Temperature 79 °F 73 °F 60 °F (1966)
Degree Days  
Heating Degree Days 0 0  
Month to date heating degree days 0 0  
Since 1 June heating degree days 0 0  
Since 1 July heating degree days 1268 1488  
Cooling Degree Days 23 15  
Month to date cooling degree days 217 185  
Year to date cooling degree days 618 627  
Since 1 June cooling degree days 217 185  
Growing Degree Days 38 (Base 50)    
Moisture  
Dew Point 74 °F    
Average Humidity 64    
Maximum Humidity 85    
Minimum Humidity 43    
Precipitation  
Precipitation 0.00 in 0.17 in 3.16 in (2006)
Month to date precipitation 3.12 1.99  
Year to date precipitation 15.54 16.91  
Snow  
Snow 0.00 in - 0.00 in ()
Month to date snowfall 0.0  
Since 1 June snowfall 0.0  
Since 1 July snowfall 0.0  
Snow Depth 0.00 in    
Sea Level Pressure  
Sea Level Pressure 29.91 in    
Wind  
Wind Speed 9 mph (WSW)    
Max Wind Speed 16 mph    
Max Gust Speed 23 mph    
Visibility 10 miles    
Events Thunderstorm    
T = Trace of Precipitation, MM = Missing Value Source: NWS Daily Summary

Daily Weather History Graph

Daily Weather History Graph

Search for Another Location

Airport or City:

Trip Planner

Search our weather history database for the weather conditions in past years. The results will help you decide how hot, cold, wet, or windy it might be!

Date:

Astronomy

Jun. 13, 2013 Rise Set
Actual Time 6:21 AM EDT 8:30 PM EDT
Civil Twilight 5:53 AM EDT 8:58 PM EDT
Nautical Twilight 5:19 AM EDT 9:32 PM EDT
Astronomical Twilight 4:42 AM EDT 10:08 PM EDT
Moon 10:42 AM EDT (6/13) 11:52 PM EDT (6/13)
Length of Visible Light 15h 05m
Length of Day
14h 09m
Waxing Crescent, 21% of the Moon is Illuminated
Jun 13
Waxing Crescent
Jun 16
First Quarter
Jun 23
Full
Jun 30
Last Quarter
Jul 8
New

Hourly Weather History & Observations

Time (EDT) Temp. Heat Index Dew Point Humidity Pressure Visibility Wind Dir Wind Speed Gust Speed Precip Events Conditions
12:53 AM 81.0 °F 87.3 °F 75.9 °F 85% 29.98 in 10.0 mi SW 4.6 mph - N/A   Clear
1:53 AM 81.0 °F 87.3 °F 75.9 °F 85% 29.96 in 10.0 mi WSW 6.9 mph - N/A   Clear
2:53 AM 81.0 °F 86.7 °F 75.0 °F 82% 29.94 in 10.0 mi WSW 5.8 mph - N/A   Clear
3:53 AM 80.1 °F 84.5 °F 73.9 °F 81% 29.94 in 10.0 mi WSW 5.8 mph - N/A   Clear
4:53 AM 80.1 °F 84.5 °F 73.9 °F 81% 29.95 in 10.0 mi West 5.8 mph - N/A   Mostly Cloudy
5:53 AM 79.0 °F - 73.9 °F 84% 29.95 in 10.0 mi WSW 6.9 mph - N/A   Clear
6:53 AM 79.0 °F - 73.9 °F 84% 29.96 in 10.0 mi SW 6.9 mph - N/A   Clear
7:53 AM 80.1 °F 85.1 °F 75.0 °F 85% 29.98 in 10.0 mi WSW 6.9 mph - N/A   Partly Cloudy
8:53 AM 82.9 °F 90.2 °F 75.0 °F 77% 29.99 in 10.0 mi WSW 5.8 mph - N/A   Clear
9:53 AM 87.1 °F 96.3 °F 75.0 °F 67% 29.98 in 10.0 mi WSW 4.6 mph - N/A   Clear
10:53 AM 90.0 °F 99.0 °F 73.9 °F 59% 29.96 in 10.0 mi WSW 6.9 mph - N/A   Clear
11:53 AM 91.9 °F 100.7 °F 73.0 °F 54% 29.96 in 10.0 mi West 9.2 mph - N/A   Clear
12:53 PM 93.9 °F 103.4 °F 73.0 °F 51% 29.94 in 10.0 mi WSW 15.0 mph 20.7 mph N/A   Partly Cloudy
1:53 PM 93.9 °F 102.1 °F 72.0 °F 49% 29.91 in 10.0 mi West 11.5 mph 18.4 mph N/A   Partly Cloudy
2:53 PM 96.1 °F 103.5 °F 71.1 °F 44% 29.88 in 10.0 mi West 12.7 mph 19.6 mph N/A   Scattered Clouds
3:53 PM 95.0 °F 101.3 °F 70.0 °F 44% 29.86 in 10.0 mi WSW 10.4 mph 19.6 mph N/A   Partly Cloudy
4:53 PM 96.1 °F 103.5 °F 71.1 °F 44% 29.84 in 10.0 mi WSW 9.2 mph 18.4 mph N/A   Partly Cloudy
5:53 PM 95.0 °F 101.3 °F 70.0 °F 44% 29.84 in 10.0 mi WSW 9.2 mph - N/A   Partly Cloudy
6:53 PM 93.9 °F 100.8 °F 71.1 °F 47% 29.82 in 10.0 mi WSW 12.7 mph 19.6 mph N/A   Partly Cloudy
7:08 PM 91.4 °F 100.1 °F 73.4 °F 55% 29.83 in 10.0 mi SW 12.7 mph - N/A Thunderstorm Partly Cloudy
7:23 PM 89.6 °F 98.2 °F 73.4 °F 59% 29.83 in 10.0 mi SW 13.8 mph - N/A   Scattered Clouds
7:53 PM 89.1 °F 99.1 °F 75.0 °F 63% 29.83 in 10.0 mi SSW 11.5 mph - N/A   Scattered Clouds
8:53 PM 86.0 °F 95.1 °F 75.0 °F 70% 29.85 in 10.0 mi SW 10.4 mph - N/A   Clear
9:53 PM 84.9 °F 94.1 °F 75.9 °F 74% 29.86 in 10.0 mi WSW 10.4 mph - N/A   Clear
10:53 PM 84.0 °F 92.6 °F 75.9 °F 76% 29.86 in 10.0 mi SW 11.5 mph - N/A   Clear
11:53 PM 82.0 °F 88.6 °F 75.0 °F 79% 29.85 in 10.0 mi WSW 10.4 mph - N/A   Clear